Starlink 4788

operational
NORAD ID: 53863 Int'l Des: 2022-114 Owner: SPXS Country: US Constellation: starlink
LEOCIRCULAR

About Starlink 4788

Description loading...

Live Position

Loading 3D Globe...

Upcoming Passes

Altitude History

Altitude vs Time

uPlot chart will show altitude changes over time

Two-Line Element Set

1 53863U 22114AX 26062.01478593 .00000821 00000-0 69645-4 0 9993
2 53863 53.2185 314.1242 0001350 89.0943 271.0204 15.08842985192109
Epoch: Mar 3, 2026 • Age: 14 hours

Current Status

Altitude 542.7 km
Velocity 7.60 km/s
Sub-Earth Point 40.58°N, 86.32°E
Launch Date Sep 19, 2022
Age 3.4 years
Type internet

Technical Details

Classification Payload
Mass 305.00 kg
Dry Mass 290.00 kg
Total Mass 305.00 kg
Length 0.20 m
Diameter 2.80 m
Span 9.00 m
Shape Box + pan
Manufacturer SPXS
Bus Type Starlink
Phase Status In Orbit
Owner/State SPXS/US

Large Constellations

Loading constellations...